Weather History for Fort Yukon, AK

Change the Weather History Date:

Wednesday, May 15, 2013

  Actual Average Record
Temperature  
Mean Temperature 32 °F -  
Max Temperature 46 °F 53 °F 71 °F (2004)
Min Temperature 17 °F 32 °F 17 °F (2013)
Degree Days  
Heating Degree Days 34    
Moisture  
Dew Point 14 °F    
Average Humidity 43    
Maximum Humidity 86    
Minimum Humidity 16    
Precipitation  
Precipitation 0.00 in - - ()
Sea Level Pressure  
Sea Level Pressure 29.66 in    
Wind  
Wind Speed 2 mph (SW)    
Max Wind Speed 10 mph    
Max Gust Speed -    
Visibility 10 miles    
Events      
Averages and records for this station are not official NWS values.
T = Trace of Precipitation, MM = Missing Value Source: NWS Daily Summary

Daily Weather History Graph

Daily Weather History Graph

Search for Another Location

Airport:

Trip Planner

Search our weather history database for the weather conditions in past years. The results will help you decide how hot, cold, wet, or windy it might be!

Date:

Astronomy

May. 15, 2013 Rise Set
Actual Time 3:52 AM AKDT 11:26 PM AKDT
Civil Twilight 2:09 AM AKDT 1:04 AM AKDT
Nautical Twilight Sun does not rise Sun does not rise
Astronomical Twilight Sun does not rise Sun does not rise
Moon 9:18 AM AKDT (5/15) 2:38 AM AKDT (5/15)
Length of Visible Light 22h 55m
Length of Day
19h 33m
Waxing Crescent, 28% of the Moon is Illuminated
May 15
Waxing Crescent
May 17
First Quarter
May 24
Full
May 31
Last Quarter
Jun 8
New

Hourly Weather History & Observations

Time (AKDT) Temp. Windchill Dew Point Humidity Pressure Visibility Wind Dir Wind Speed Gust Speed Precip Events Conditions
12:16 AM 26.6 °F - 15.8 °F 64% 29.65 in 10.0 mi Calm Calm - N/A   Clear
12:36 AM 26.6 °F - 15.8 °F 64% 29.65 in 10.0 mi Calm Calm - N/A   Clear
1:16 AM 24.8 °F - 15.8 °F 69% 29.65 in 5.0 mi Calm Calm - N/A   Clear
1:36 AM 23.0 °F - 15.8 °F 74% 29.65 in 5.0 mi Calm Calm - N/A   Clear
1:56 AM 21.2 °F - 15.8 °F 80% 29.66 in 5.0 mi Calm Calm - N/A   Clear
2:16 AM 21.2 °F - 17.6 °F 86% 29.66 in 10.0 mi Calm Calm - N/A   Clear
2:36 AM 21.2 °F - 15.8 °F 80% 29.67 in 10.0 mi Calm Calm - N/A   Clear
2:56 AM 21.2 °F - 15.8 °F 80% 29.67 in 10.0 mi Calm Calm - N/A   Clear
3:16 AM 19.4 °F - 15.8 °F 86% 29.67 in 7.0 mi Calm Calm - N/A   Clear
3:36 AM 19.4 °F - 14.0 °F 80% 29.67 in 6.0 mi Calm Calm - N/A   Clear
3:56 AM 19.4 °F - 14.0 °F 80% 29.67 in 10.0 mi Calm Calm - N/A   Clear
4:36 AM 19.4 °F - 14.0 °F 80% 29.67 in 10.0 mi Calm Calm - N/A   Clear
4:56 AM 19.4 °F - 14.0 °F 80% 29.68 in 10.0 mi Calm Calm - N/A   Clear
5:16 AM 19.4 °F - 14.0 °F 80% 29.68 in 10.0 mi Calm Calm - N/A   Clear
5:36 AM 21.2 °F - 15.8 °F 80% 29.68 in 10.0 mi Calm Calm - N/A   Clear
5:56 AM 24.8 °F - 15.8 °F 69% 29.68 in 10.0 mi Calm Calm - N/A   Clear
6:16 AM 24.8 °F - 17.6 °F 74% 29.68 in 10.0 mi Calm Calm - N/A   Clear
6:36 AM 26.6 °F - 17.6 °F 69% 29.68 in 10.0 mi Calm Calm - N/A   Clear
6:56 AM 28.4 °F - 15.8 °F 59% 29.68 in 10.0 mi Calm Calm - N/A   Clear
7:16 AM 30.2 °F - 12.2 °F 47% 29.68 in 10.0 mi Calm Calm - N/A   Clear
7:36 AM 32.0 °F 28.7 °F 12.2 °F 44% 29.68 in 10.0 mi ENE 3.5 mph - N/A   Clear
7:56 AM 33.8 °F - 14.0 °F 44% 29.68 in 10.0 mi Calm Calm - N/A   Clear
8:16 AM 35.6 °F 31.7 °F 14.0 °F 41% 29.68 in 10.0 mi SSE 4.6 mph - N/A   Clear
8:36 AM 35.6 °F 32.8 °F 14.0 °F 41% 29.69 in 10.0 mi SSE 3.5 mph - N/A   Clear
8:56 AM 37.4 °F - 14.0 °F 38% 29.69 in 10.0 mi Calm Calm - N/A   Clear
9:16 AM 37.4 °F 33.8 °F 15.8 °F 41% 29.68 in 10.0 mi SSE 4.6 mph - N/A   Clear
9:36 AM 39.2 °F 35.0 °F 14.0 °F 36% 29.68 in 10.0 mi South 5.8 mph - N/A   Clear
9:56 AM 39.2 °F 35.9 °F 15.8 °F 39% 29.68 in 10.0 mi South 4.6 mph - N/A   Clear
10:16 AM 39.2 °F 35.9 °F 14.0 °F 36% 29.68 in 10.0 mi SSE 4.6 mph - N/A   Clear
10:36 AM 41.0 °F 38.0 °F 15.8 °F 36% 29.68 in 10.0 mi SSE 4.6 mph - N/A   Clear
10:56 AM 41.0 °F 37.1 °F 15.8 °F 36% 29.68 in 10.0 mi South 5.8 mph - N/A   Clear
11:16 AM 42.8 °F 41.1 °F 14.0 °F 31% 29.68 in 10.0 mi WSW 3.5 mph - N/A   Clear
11:36 AM 42.8 °F 37.5 °F 14.0 °F 31% 29.68 in 10.0 mi SSW 9.2 mph - N/A   Partly Cloudy
11:56 AM 42.8 °F 39.3 °F 14.0 °F 31% 29.68 in 10.0 mi SSW 5.8 mph - N/A   Partly Cloudy
12:16 PM 42.8 °F 39.3 °F 15.8 °F 34% 29.68 in 10.0 mi SW 5.8 mph - N/A   Partly Cloudy
12:36 PM 42.8 °F 38.0 °F 14.0 °F 31% 29.68 in 10.0 mi West 8.1 mph - N/A   Partly Cloudy
12:56 PM 42.8 °F 40.1 °F 14.0 °F 31% 29.68 in 10.0 mi SW 4.6 mph - N/A   Partly Cloudy
1:16 PM 42.8 °F 37.0 °F 14.0 °F 31% 29.68 in 10.0 mi West 10.4 mph - N/A   Partly Cloudy
1:36 PM 42.8 °F 38.6 °F 14.0 °F 31% 29.68 in 10.0 mi West 6.9 mph - N/A   Partly Cloudy
1:56 PM 44.6 °F 41.4 °F 14.0 °F 29% 29.68 in 10.0 mi WSW 5.8 mph - N/A   Partly Cloudy
2:16 PM 44.6 °F 41.4 °F 15.8 °F 31% 29.68 in 10.0 mi SW 5.8 mph - N/A   Partly Cloudy
2:36 PM 44.6 °F 42.2 °F 14.0 °F 29% 29.68 in 10.0 mi West 4.6 mph - N/A   Partly Cloudy
2:56 PM 44.6 °F 40.7 °F 14.0 °F 29% 29.68 in 10.0 mi NW 6.9 mph - N/A   Partly Cloudy
3:16 PM 44.6 °F - 14.0 °F 29% 29.68 in 10.0 mi Calm Calm - N/A   Partly Cloudy
3:36 PM 44.6 °F 40.7 °F 14.0 °F 29% 29.68 in 10.0 mi West 6.9 mph - N/A   Partly Cloudy
3:56 PM 44.6 °F 42.2 °F 14.0 °F 29% 29.67 in 10.0 mi WSW 4.6 mph - N/A   Partly Cloudy
4:16 PM 44.6 °F 42.2 °F 14.0 °F 29% 29.67 in 8.0 mi West 4.6 mph - N/A   Partly Cloudy
4:36 PM 46.4 °F 44.3 °F 14.0 °F 27% 29.67 in 10.0 mi WNW 4.6 mph - N/A   Partly Cloudy
4:56 PM 46.4 °F 42.9 °F 14.0 °F 27% 29.66 in 10.0 mi West 6.9 mph - N/A   Partly Cloudy
5:16 PM 46.4 °F 42.9 °F 14.0 °F 27% 29.66 in 10.0 mi NW 6.9 mph - N/A   Partly Cloudy
5:36 PM 46.4 °F 42.9 °F 12.2 °F 25% 29.66 in 10.0 mi WNW 6.9 mph - N/A   Partly Cloudy
5:56 PM 46.4 °F - 12.2 °F 25% 29.65 in 10.0 mi Calm Calm - N/A   Clear
6:16 PM 46.4 °F 45.2 °F 12.2 °F 25% 29.65 in 10.0 mi NNW 3.5 mph - N/A   Clear
6:36 PM 46.4 °F 44.3 °F 12.2 °F 25% 29.65 in 10.0 mi SSE 4.6 mph - N/A   Clear
6:56 PM 46.4 °F - 14.0 °F 27% 29.65 in 10.0 mi Calm Calm - N/A   Clear
7:16 PM 46.4 °F 45.2 °F 12.2 °F 25% 29.65 in 10.0 mi South 3.5 mph - N/A   Clear
7:36 PM 46.4 °F 45.2 °F 12.2 °F 25% 29.65 in 10.0 mi SE 3.5 mph - N/A   Clear
7:56 PM 46.4 °F - 12.2 °F 25% 29.64 in 10.0 mi Calm Calm - N/A   Clear
8:16 PM 46.4 °F - 12.2 °F 25% 29.63 in 10.0 mi Calm Calm - N/A   Clear
8:36 PM 46.4 °F 45.2 °F 12.2 °F 25% 29.63 in 10.0 mi SE 3.5 mph - N/A   Clear
8:56 PM 46.4 °F - 10.4 °F 23% 29.63 in 10.0 mi Calm Calm - N/A   Clear
9:16 PM 46.4 °F - 12.2 °F 25% 29.63 in 10.0 mi Calm Calm - N/A   Clear
9:36 PM 44.6 °F - 10.4 °F 25% 29.63 in 10.0 mi Calm Calm - N/A   Clear
9:56 PM 42.8 °F - 12.2 °F 29% 29.63 in 10.0 mi Calm Calm - N/A   Clear
10:16 PM 41.0 °F - 14.0 °F 33% 29.63 in 10.0 mi Calm Calm - N/A   Clear
10:36 PM 39.2 °F - 12.2 °F 33% 29.63 in 10.0 mi Calm Calm - N/A   Clear
10:56 PM 37.4 °F - 19.4 °F 48% 29.63 in 10.0 mi Calm Calm - N/A   Mostly Cloudy
11:16 PM 35.6 °F - 15.8 °F 44% 29.63 in 10.0 mi Calm Calm - N/A   Overcast
11:36 PM 37.4 °F - 17.6 °F 45% 29.63 in 10.0 mi Calm Calm - N/A   Overcast
11:56 PM 33.8 °F - 15.8 °F 48% 29.63 in 10.0 mi Calm Calm - N/A   Overcast